User: anonymous   Login
Location: SAPM � Hemmingford
(45.0500°N, 73.5833°W)
Time: 12:56:34
(UTC-04:00)
Language:

Cosmos 1674 Rocket - Orbit

View from above orbital plane
View from above orbital plane
View from above satellite
View from above satellite

Ground track
Ground track

The orbit data is extracted from the following two-line orbital elements,

1 15945U 85069B   17267.88182216  .00000089  00000-0  78340-5 0  9995
2 15945  82.5291  39.6487 0018645 316.4550  43.5192 14.83939924735818
Epoch (UTC): 24 September 2017 21:09:49
Eccentricity: 0.0018645
inclination: 82.5291°
perigee height: 604 km
apogee height: 630 km
right ascension of ascending node: 39.6487°
argument of perigee: 316.4550°
revolutions per day: 14.83939924
mean anomaly at epoch: 43.5192°
orbit number at epoch: 73581

The dashed part of the orbit path shows where the satellite is in the earth's shadow,  

DLR